Location: Lachaise
(45.8833°N, 1.8500°E)
Time: 09:05:00
(UTC+00:00)

STARLINK-1029 - Pass Details

Date: 07 June 2020
Orbit: 379 x 388 km, 53.0° (Epoch: 14 July)

Event Time Altitude Azimuth Distance (km) Brightness Sun altitude
Exits shadow 02:10:32 15° 272° (W) 1,154 5.0 -14.4°
Maximum altitude 02:12:51 40° 338° (NNW) 594 4.1 -14.2°
Drops below altitude 10° 02:15:53 10° 50° (NE) 1,426 7.0 -13.9°
Sets 02:18:02 0° 58° (ENE) 2,285 8.1 -13.7°
